Location: Newark
(12.4436°N, 0.6167°W)
Time: 03:43:29
(UTC+00:00)

Vanguard 1 - Pass Details

Date: 13 December 2019
Orbit: 651 x 3832 km, 34.2° (Epoch: 17 January)

Event Time Altitude Azimuth Distance (km) Brightness Sun altitude
Rises 06:20:53 0° 290° (WNW) 7,956 14.0 0.6°
Reaches altitude 10° 06:27:32 10° 298° (WNW) 6,918 13.7 2.1°
Maximum altitude 06:47:18 35° 359° (N) 4,317 13.2 6.5°
Drops below altitude 10° 07:00:50 10° 61° (ENE) 4,834 14.2 9.5°
Sets 07:04:25 0° 70° (ENE) 5,430 14.6 10.2°
